Location: Glenbow
(51.1592°N, 114.3828°W)
Time: 20:11:33
(UTC+00:00)

Envisat - Pass Details

Date: 05 December 2021
Orbit: 764 x 766 km, 98.2° (Epoch: 26 January)

Event Time Altitude Azimuth Distance (km) Brightness Sun altitude
Rises 13:13:16 0° 12° (NNE) 3,248 6.3 -19.6°
Reaches altitude 10° 13:15:36 10° 9° (N) 2,317 5.5 -19.2°
Maximum altitude 13:20:38 63° 290° (WNW) 857 2.9 -18.5°
Drops below altitude 10° 13:25:38 10° 210° (SSW) 2,299 5.3 -17.7°
Sets 13:27:57 0° 207° (SSW) 3,221 6.1 -17.3°
